Content
SEND FEEDBACK

Daily
Averages
Monthly
Summary
Canada

VANCOUVER, BRITISH COLUMBIA


Home > North America > Canada > British Columbia
Elevation: 7 feet     Latitude: 49 11N     Longitude: 123 10W

WEATHER
 
SELECT A DAY
Number of Records: 249,213;   Date Range: 5/15/97 - 4/23/14
 
SHARE

PRINT THIS DATA

[ ← Previous Day ]
WEATHER ALMANAC - APRIL 6, 2013
[ Next Day → ]
[ °C ]   °F
Weather ElementAverageHighLow
Temperature49.8 °F55.4 °F (2:35 pm)44.6 °F (9:15 pm)
Dewpoint40.8 °F46.4 °F (3:55 am)35.6 °F (1:15 pm)
Humidity72.4 %93 % (8:15 pm)47 % (2:35 pm)
Barometer29.78 in29.86 in (2:15 pm)29.59 in (2:15 am)
Wind Speed8.2 mph17.3 mph (1:15 am)
Wind Gust29.9 mph (2:15 am)
Weather ElementAverage
Visibility9.7 mi
Wind DirectionSSE (167.4 °)

Weather ElementTotal
Precipitation---
Heating Degree Days15 (Base 65)
Averaged from 70 records on April 6, 2013
WEATHER CONDITIONS BREAKOUT
WIND DIRECTION BREAKOUT
WEATHER BY HOUR - APRIL 6, 2013
[ °C ]   °F
Local TimeTemperatureDewpointHumidityBarometerVisibilityWind DirectionWind SpeedGust SpeedPrecipitationEventsConditions
12:35 AM48.2 °F44.6 °F87 %29.66 in6.0 miSSE (160°)8.1 mphRainLight Rain
12:55 AM50.0 °F44.6 °F82 %29.64 in10.0 miSE (130°)11.5 mph20.7 mphPartly Cloudy
1:15 AM50.0 °F44.6 °F82 %29.63 in6.0 miSSE (150°)17.3 mph26.5 mphRainLight Rain
1:35 AM50.0 °F44.6 °F82 %29.62 in6.0 miSE (140°)17.3 mph28.8 mphRainLight Rain
1:55 AM50.0 °F44.6 °F82 %29.60 in10.0 miSSE (150°)13.8 mph28.8 mphRainLight Rain
2:15 AM51.8 °F42.8 °F71 %29.59 in10.0 miSSE (150°)13.8 mph29.9 mphClear
2:35 AM51.8 °F44.6 °F76 %29.59 in10.0 miSSE (150°)10.4 mph27.6 mphClear
2:55 AM51.8 °F44.6 °F76 %29.59 in10.0 miSSE (160°)11.5 mph28.8 mphPartly Cloudy
3:15 AM51.8 °F44.6 °F76 %29.60 in10.0 miSSE (160°)10.4 mph23.0 mphPartly Cloudy
3:35 AM51.8 °F44.6 °F76 %29.62 in10.0 miSouth (180°)10.4 mph23.0 mphScattered Clouds
3:55 AM51.8 °F46.4 °F82 %29.64 in10.0 miSouth (180°)12.7 mph24.2 mphRainLight Rain
4:15 AM50.0 °F46.4 °F87 %29.66 in10.0 miSouth (180°)10.4 mph19.6 mphMostly Cloudy
4:35 AM50.0 °F46.4 °F87 %29.68 in10.0 miSouth (180°)10.4 mph17.3 mphMostly Cloudy
4:55 AM50.0 °F46.4 °F87 %29.70 in10.0 miSSW (210°)6.9 mphOvercast
5:15 AM50.0 °F41.0 °F71 %29.72 in10.0 miSW (230°)9.2 mph20.7 mphMostly Cloudy
5:35 AM48.2 °F41.0 °F76 %29.71 in10.0 miSSW (210°)12.7 mph24.2 mphPartly Cloudy
5:55 AM48.2 °F39.2 °F71 %29.71 in10.0 miSSW (210°)13.8 mph21.9 mphClear
6:15 AM48.2 °F39.2 °F71 %29.71 in10.0 miSSW (210°)13.8 mph19.6 mphClear
6:35 AM48.2 °F39.2 °F71 %29.72 in10.0 miSSW (210°)9.2 mph23.0 mphClear
6:55 AM48.2 °F39.2 °F71 %29.73 in10.0 miSSW (210°)13.8 mph18.4 mphClear
7:15 AM48.2 °F39.2 °F71 %29.73 in10.0 miSSW (200°)9.2 mphPartly Cloudy
7:35 AM48.2 °F39.2 °F71 %29.74 in10.0 miSW (220°)11.5 mph19.6 mphClear
7:55 AM48.2 °F39.2 °F71 %29.75 in10.0 miSSW (210°)10.4 mph21.9 mphClear
8:15 AM48.2 °F39.2 °F71 %29.75 in10.0 miSSW (210°)5.8 mphPartly Cloudy
8:35 AM48.2 °F39.2 °F71 %29.76 in10.0 miSSW (210°)10.4 mph17.3 mphClear
8:55 AM50.0 °F39.2 °F66 %29.78 in10.0 miSW (220°)12.7 mph21.9 mphPartly Cloudy
9:15 AM50.0 °F39.2 °F66 %29.79 in10.0 miWSW (240°)8.1 mphMostly Cloudy
9:35 AM48.2 °F41.0 °F76 %29.79 in10.0 miSW (220°)10.4 mph16.1 mphPartly Cloudy
9:55 AM50.0 °F41.0 °F71 %29.80 in10.0 miSSW (200°)4.6 mph18.4 mphPartly Cloudy
10:15 AM50.0 °F41.0 °F71 %29.81 in10.0 miSW (220°)8.1 mphScattered Clouds
10:35 AM50.0 °F41.0 °F71 %29.82 in10.0 miSSW (210°)13.8 mph17.3 mphMostly Cloudy
10:55 AM50.0 °F39.2 °F66 %29.83 in9.0 miWSW (240°)8.1 mph17.3 mphPartly Cloudy
11:15 AM51.8 °F39.2 °F62 %29.84 in10.0 miWest (260°)9.2 mphClear
11:35 AM51.8 °F37.4 °F58 %29.85 in10.0 miSW (230°)8.1 mphPartly Cloudy
11:55 AM53.6 °F39.2 °F58 %29.85 in9.0 miWest (260°)10.4 mphPartly Cloudy
12:15 PM51.8 °F37.4 °F58 %29.85 in10.0 miSW (230°)12.7 mph17.3 mphPartly Cloudy
12:35 PM53.6 °F37.4 °F54 %29.85 in10.0 miWSW (240°)8.1 mph20.7 mphClear
12:55 PM53.6 °F37.4 °F54 %29.85 in10.0 miWSW (240°)9.2 mph17.3 mphClear
1:15 PM51.8 °F35.6 °F54 %29.85 in10.0 miWSW (240°)8.1 mph17.3 mphClear
1:35 PM53.6 °F35.6 °F51 %29.85 in10.0 miSW (220°)10.4 mph18.4 mphClear
1:55 PM53.6 °F35.6 °F51 %29.85 in10.0 miSW (220°)10.4 mphClear
2:15 PM53.6 °F35.6 °F51 %29.86 in10.0 miWSW (250°)9.2 mph16.1 mphClear
2:35 PM55.4 °F35.6 °F47 %29.86 in9.0 miWest (280°)6.9 mphClear
2:55 PM53.6 °F35.6 °F51 %29.86 in10.0 miWSW (240°)8.1 mphClear
3:15 PM55.4 °F37.4 °F51 %29.85 in10.0 miWest (280°)10.4 mphPartly Cloudy
3:35 PM55.4 °F35.6 °F47 %29.85 in10.0 miSW (220°)6.9 mphPartly Cloudy
3:55 PM53.6 °F35.6 °F51 %29.85 in10.0 miWSW (240°)6.9 mphScattered Clouds
4:15 PM53.6 °F37.4 °F54 %29.85 in10.0 miCalmMostly Cloudy
4:35 PM53.6 °F37.4 °F54 %29.86 in10.0 miSSE (150°)4.6 mphScattered Clouds
5:15 PM50.0 °F39.2 °F66 %29.86 in9.0 miSSW (210°)8.1 mphRainLight Rain
5:35 PM50.0 °F39.2 °F66 %29.86 in10.0 miSW (220°)5.8 mphScattered Clouds
5:55 PM50.0 °F39.2 °F66 %29.85 in10.0 miSSW (210°)5.8 mphPartly Cloudy
6:15 PM50.0 °F39.2 °F66 %29.86 in10.0 miSouth (190°)3.5 mphScattered Clouds
6:35 PM50.0 °F39.2 °F66 %29.85 in10.0 miSouth (190°)6.9 mphPartly Cloudy
6:55 PM48.2 °F41.0 °F76 %29.85 in9.0 miSSW (200°)6.9 mphRainLight Rain
7:15 PM48.2 °F44.6 °F87 %29.85 in9.0 miCalmScattered Clouds
7:35 PM48.2 °F44.6 °F87 %29.84 in10.0 miCalmPartly Cloudy
7:55 PM48.2 °F44.6 °F87 %29.84 in10.0 miSouth (190°)4.6 mphScattered Clouds
8:15 PM46.4 °F44.6 °F93 %29.83 in10.0 miSSW (200°)6.9 mphClear
8:35 PM46.4 °F42.8 °F87 %29.83 in10.0 miNorthPartly Cloudy
8:55 PM46.4 °F42.8 °F87 %29.83 in10.0 miCalmMostly Cloudy
9:15 PM44.6 °F42.8 °F93 %29.83 in10.0 miNorthMostly Cloudy
9:35 PM44.6 °F42.8 °F93 %29.83 in10.0 miCalmPartly Cloudy
9:55 PM44.6 °F42.8 °F93 %29.83 in10.0 miCalmClear
10:15 PM44.6 °F42.8 °F93 %29.82 in10.0 miCalmPartly Cloudy
10:35 PM44.6 °F42.8 °F93 %29.82 in10.0 miNorthMostly Cloudy
10:55 PM44.6 °F42.8 °F93 %29.81 in10.0 miCalmMostly Cloudy
11:15 PM46.4 °F41.0 °F81 %29.80 in10.0 miCalmMostly Cloudy
11:35 PM44.6 °F42.8 °F93 %29.79 in10.0 miEast (90°)4.6 mphOvercast
11:55 PM44.6 °F42.8 °F93 %29.78 in10.0 miENE (60°)6.9 mphRainLight Rain
Hourly data recorded from CZBB, located miles away from Vancouver, British Columbia







STORIES FROM OUR PARTNERS